Regional Weather Roundup
Issued by NWS

Home | Current Version | Previous Version | Graphics & Text | Print | Product List | Glossary On
Versions: 1 2 3 4 5 6 7 8 9 10 11 12 13 14 15 16 17 18 19 20 21 22 23 24 25 26 27 28 29 30 31 32 33 34 35 36 37 38 39 40 41 42 43 44 45 46 47 48 49 50
000
ASUS43 KFSD 170602
RWRSD

WEATHER ROUNDUP FOR SOUTH DAKOTA
NATIONAL WEATHER SERVICE SIOUX FALLS SD
100 AM CDT THU APR 17 2014

NOTE: "FAIR" INDICATES FEW OR NO CLOUDS BELOW 12,000 FEET WITH NO
SIGNIFICANT WEATHER AND/OR OBSTRUCTIONS TO VISIBILITY.


SDZ001>005-009-010-012>017-170700-
NORTHWEST AND NORTH CENTRAL SOUTH DAKOTA

CITY           SKY/WX    TMP DP  RH WIND       PRES   REMARKS
FAITH            N/A     28  22  78 SE7       30.20R WCI  21
MOBRIDGE       PTCLDY    27  17  66 NE9       30.22R WCI  18
$$

SDZ012>016-024>037-041>051-057-063-072>074-170700-
SOUTHWEST AND SOUTH CENTRAL SOUTH DAKOTA

CITY           SKY/WX    TMP DP  RH WIND       PRES   REMARKS
RAPID CTY ARPT CLOUDY    31  24  75 S6        30.17S WCI  25
PIERRE         PTCLDY    25  19  78 CALM      30.24R
CUSTER         FOG       24  23  96 CALM      30.08S VSB 1/2
ELLSWORTH AFB  CLOUDY    31  26  79 S8        30.16S WCI  24
PHILIP         CLOUDY    33  24  69 SE6       30.23R WCI  28
PINE RIDGE     CLOUDY    30  25  81 E7        30.17R WCI  23
WINNER         FAIR      26  21  81 W3        30.24R
$$

SDZ004>011-016>023-039-040-170700-
NORTHEAST SOUTH DAKOTA

CITY           SKY/WX    TMP DP  RH WIND       PRES   REMARKS
ABERDEEN       CLEAR     21  18  88 N8        30.24R WCI  11
WATERTOWN      FAIR      19  16  88 N10       30.16R WCI   7
$$

SDZ017-020-022-023-036>040-048>070-170700-
SOUTHEAST SOUTH DAKOTA

CITY           SKY/WX    TMP DP  RH WIND       PRES   REMARKS
SIOUX FALLS    CLOUDY    28  23  81 N18       30.15R WCI  15
HURON          CLEAR     21  19  92 NW6       30.23R WCI  13
CHAMBERLAIN      N/A     25  22  88 NW3       30.25R
MITCHELL       CLOUDY    30  23  75 N10       30.23R WCI  21
YANKTON        CLOUDY    30  25  80 NW17      30.21R WCI  18
$$

ABBREVIATIONS USED IN REMARKS
   TC - TEMPERATURE IN CELSIUS
  WCI - WIND CHILL INDEX
   HX - HEAT INDEX
  VSB - VISIBILITY




USA.gov is the U.S. government's official web portal to all federal, state and local government web resources and services.